OPS 4682 DEB, 38428

Orbit data source: Space-Track

OPS 4682 DEB, 38428 is space debris in LEO originally from a launch on Sat, 03 Apr 1965 UTC launched from the Air Force Western Test Range (AFWTR). Debris objects in space refer to the collection of defunct objects orbiting the Earth. Examples of debris include non-operational satellites, rocket bodies, and fragments generated from explosions, collisions, or faulty payload assembly.

Loading next visibility...
Identifier
38428, 1965-027EH
Orbit
LEO
Country
Flag of USUS
Related business
Manufacturer
Unknown
Mission
Spacecraft
Bus & Motor
Unknown
Mass
Unknown
Launch date (UTC)
1965-04-03 (61 years ago)
Launch vehicle
Unknown
Launch site
Air Force Western Test Range (AFWTR)
Object type
Payload
Rocket body
Debris
Shape & HBR
Unknown shape, 0.1 m
Radar Cross Section
Small (<0.1 m²)

Expand to show TLE details & history
Last TLE update: 1 day ago

TLE from 1 day ago
0 OPS 4682 DEB
1 38428U 65027EH  25348.35088476  .00000722  00000-0  24544-2 0  9990
2 38428  90.2436   9.1514 0044554 181.7372 178.3601 12.97417197573944
Epoch: 2025-12-14T08:25Z
TLE epoch observation values (Epoch: 2025-12-14T08:25:16.443Z)
Latitude
0.00001°
Longitude
159.56783°
Altitude
1,309.181 km
Speed
7.186 km/s
True Right ascension
00h 36m 36s
True Declination
0° 00' 00"
Sunlit
Object was in daylight at epoch
Visualization orbit readout
Latitude
Unknown
Longitude
Unknown
Altitude
Unknown
Speed
Unknown
Apparent Right ascension
Unknown
Apparent Declination
Unknown
Sunlit
N/A
Visualization observer readout
Local Sidereal Time
13:22:51
Azimuth
Unknown
Elevation
Unknown
Doppler factor
Unknown
Orbital elements
Apogee altitude
1,303.426 km
Perigee altitude
1,235.281 km
Semi-major axis
7,647.491 km
Eccentricity
0.00446
Inclination
90.2436°
RAAN
9.1514°
Arg. of periapsis
181.7372°
True anomaly
178.37463°
Mean anomaly
178.3601°
Eccentric anomaly
178.36737°
Mean motion
3.24537 °/min
Orbital period
110.93 mins
BSTAR
0.0024544
Loading maneuver chart data...
Computing Atmospheric mass density...
Loading historical data...
Loading historical data...
Loading historical data...
Loading historical data...
Loading historical data...
Loading historical data...
Loading historical data...

Documentation

Showing up to 5 results
|